EB5EEV-5 Weather Reports


time (UTC)temp
F
wind
direction
speed
knots
gust
knots
rain 1hr
in
rain 24hr
in
rain mn
in
humidity
%
barometer
mb
20260506003559 64 127 0.9 1.7 0.00 0.00 0.00 8 1008.4
20260506002401 64 146 0.9 1.7 0.00 0.00 0.00 8 1008.5
20260506001036 64 163 1.7 1.7 0.00 0.00 0.00 8 1008.5
20260505235541 64 157 1.7 3.5 0.00 0.00 0.00 8 1008.5
20260505234241 64 116 7.8 7.8 0.00 0.00 0.00 8 1008.4
20260505232854 64 143 4.3 7.8 0.00 0.00 0.00 8 1008.4
20260505231611 64 143 4.3 7.8 0.00 0.00 0.00 8 1008.4
20260505230140 64 128 2.6 5.2 0.00 0.00 0.00 8 1008.4
20260505224925 64 133 5.2 11.3 0.00 0.00 0.00 8 1008.3
20260505223701 65 155 3.5 9.6 0.00 0.00 0.00 8 1008.0
20260505222256 65 131 3.5 8.7 0.00 0.00 0.00 8 1007.7
20260505220901 66 113 6.1 8.7 0.00 0.00 0.00 8 1007.7
20260505215611 69 83 2.6 8.7 0.00 0.00 0.00 5 1007.3
20260505214132 69 121 5.2 7.8 0.00 0.00 0.00 5 1006.9
20260505212929 70 97 1.7 3.5 0.00 0.00 0.00 5 1006.8
20260505211533 70 153 2.6 6.1 0.00 0.00 0.00 4 1006.7
20260505210121 70 153 2.6 6.1 0.00 0.00 0.00 4 1006.7
20260505204819 70 143 1.7 3.5 0.00 0.00 0.00 4 1006.6
20260505203556 71 151 3.5 7.8 0.00 0.00 0.00 4 1006.7
20260505202159 71 136 1.7 2.6 0.00 0.00 0.00 4 1006.5
20260505200715 71 0 0.0 0.9 0.00 0.00 0.00 5 1006.3
20260505195331 71 0 0.0 0.9 0.00 0.00 0.00 5 1006.1
20260505194056 71 0 0.0 0.0 0.00 0.00 0.00 5 1006.0
20260505192631 71 0 0.0 0.0 0.00 0.00 0.00 5 1005.9
20260505191348 71 0 0.0 0.0 0.00 0.00 0.00 6 1005.8
20260505185946 72 0 0.0 0.0 0.00 0.00 0.00 6 1005.5
20260505184701 72 0 0.0 0.0 0.00 0.00 0.00 6 1005.5
20260505183326 72 116 0.9 0.9 0.00 0.00 0.00 6 1005.5
20260505182101 72 0 0.0 1.7 0.00 0.00 0.00 6 1005.4
20260505180701 72 309 0.9 2.6 0.00 0.00 0.00 6 1005.3
20260505175300 73 349 3.5 4.3 0.00 0.00 0.00 6 1005.3
20260505173903 73 355 2.6 5.2 0.00 0.00 0.00 6 1005.2
20260505172547 74 353 3.5 10.4 0.00 0.00 0.00 5 1005.0
20260505171245 74 297 6.1 7.8 0.00 0.00 0.00 5 1004.9
20260505165941 75 31 5.2 10.4 0.00 0.00 0.00 5 1005.1
20260505164714 75 31 5.2 10.4 0.00 0.00 0.00 5 1005.1
20260505163252 76 326 3.5 8.7 0.00 0.00 0.00 5 1005.2
20260505162033 76 18 3.5 5.2 0.00 0.00 0.00 5 1005.1
20260505160631 75 328 4.3 6.1 0.00 0.00 0.00 5 1005.1
20260505152611 77 265 2.6 5.2 0.00 0.00 0.00 5 1005.1
20260505151211 76 255 2.6 5.2 0.00 0.00 0.00 5 1005.4
20260505124641 74 313 5.2 7.0 0.00 0.00 0.00 6 1006.9
20260505123439 73 353 4.3 6.1 0.00 0.00 0.00 6 1006.9
20260505122151 73 301 5.2 7.8 0.00 0.00 0.00 6 1007.1
20260505120700 74 321 1.7 4.3 0.00 0.00 0.00 6 1007.1
20260505115301 73 85 1.7 3.5 0.00 0.00 0.00 6 1007.3
20260505114034 73 320 5.2 6.1 0.00 0.00 0.00 6 1007.4
20260505112538 72 221 2.6 2.6 0.00 0.00 0.00 6 1007.6
20260505111332 72 312 5.2 5.2 0.00 0.00 0.00 6 1007.8
20260505101144 73 322 0.9 2.6 0.00 0.00 0.00 5 1007.9
20260505095902 73 0 0.0 2.6 0.00 0.00 0.00 5 1007.8
20260505094507 72 239 0.9 2.6 0.00 0.00 0.00 5 1007.8
20260505093207 72 239 0.9 2.6 0.00 0.00 0.00 5 1007.8
20260505091835 72 252 1.7 1.7 0.00 0.00 0.00 5 1007.7
20260505090640 72 0 0.0 0.0 0.00 0.00 0.00 5 1007.9
20260505085441 71 0 0.0 0.9 0.00 0.00 0.00 5 1008.1
20260505084203 70 285 0.9 0.9 0.00 0.00 0.00 5 1008.1
20260505082833 70 0 0.0 0.0 0.00 0.00 0.00 6 1008.2
20260505081400 69 0 0.0 1.7 0.00 0.00 0.00 6 1008.2
20260505080138 69 0 0.0 1.7 0.00 0.00 0.00 6 1008.2
20260505074914 69 0 0.0 0.0 0.00 0.00 0.00 6 1008.1
20260505073712 67 0 0.0 0.9 0.00 0.00 0.00 6 1008.1
20260505072223 65 0 0.0 0.0 0.00 0.00 0.00 7 1008.1
20260505070954 64 0 0.0 0.0 0.00 0.00 0.00 7 1008.0
20260505065650 64 0 0.0 0.0 0.00 0.00 0.00 7 1008.1
20260505064232 61 0 0.0 0.0 0.00 0.00 0.00 8 1008.0
20260505062929 60 0 0.0 0.0 0.00 0.00 0.00 8 1008.0
20260505061714 60 0 0.0 0.0 0.00 0.00 0.00 8 1008.0
20260505060327 60 0 0.0 0.0 0.00 0.00 0.00 8 1007.8
20260505054931 59 0 0.0 0.0 0.00 0.00 0.00 8 1008.0
20260505053622 59 0 0.0 0.0 0.00 0.00 0.00 8 1008.0
20260505052402 59 0 0.0 0.0 0.00 0.00 0.00 9 1007.9
20260505051012 59 0 0.0 0.9 0.00 0.00 0.00 8 1007.7
20260505041652 60 0 0.0 0.0 0.00 0.00 0.00 9 1007.8
20260505040407 60 0 0.0 0.0 0.00 0.00 0.00 9 1007.8
20260505034942 60 0 0.0 0.0 0.00 0.00 0.00 9 1007.9
20260505033547 60 0 0.0 0.0 0.00 0.00 0.00 9 1007.9
20260505032222 61 0 0.0 0.0 0.00 0.00 0.00 9 1007.9
20260505030842 61 122 0.9 0.9 0.00 0.00 0.00 9 1008.0
20260505025617 60 126 1.7 2.6 0.00 0.00 0.00 9 1007.9
20260505024247 60 131 2.6 3.5 0.00 0.00 0.00 9 1008.1
20260505022949 61 130 0.9 0.9 0.00 0.00 0.00 9 1008.1
20260505021747 61 130 0.9 0.9 0.00 0.00 0.00 9 1008.1
20260505020322 61 0 0.0 0.0 0.00 0.00 0.00 9 1008.3
20260505015100 61 128 0.9 1.7 0.00 0.00 0.00 9 1008.3
20260505013832 62 0 0.0 0.0 0.00 0.00 0.00 9 1008.4
20260505012502 62 0 0.0 0.0 0.00 0.00 0.00 9 1008.4
20260505011219 62 0 0.0 0.0 0.00 0.00 0.00 9 1008.6
20260505005949 62 0 0.0 0.9 0.00 0.00 0.00 9 1008.7